Regional Weather Roundup
Issued by NWS

Home | Current Version | Previous Version | Text Only | Print | Product List | Glossary On
Versions: 1 2 3 4 5 6 7 8 9 10 11 12 13 14 15 16 17 18 19 20 21 22 23 24 25 26 27 28 29 30 31 32 33 34 35 36 37 38 39 40 41 42 43 44 45 46 47 48
000
ASUS45 KREV 030310
RWRNV
NEVADA REGIONAL WEATHER ROUNDUP
NATIONAL WEATHER SERVICE RENO NV
800 PM PDT SUN AUG 02 2015

NOTE: "FAIR" INDICATES FEW OR NO CLOUDS BELOW 12,000 FEET WITH NO
SIGNIFICANT WEATHER AND/OR OBSTRUCTIONS TO VISIBILITY.

NVZ001-003-004-030400-
WESTERN NEVADA

CITY           SKY/WX    TMP DP  RH WIND       PRES   REMARKS
RENO           MOCLDY    79  51  37 NW8       30.03S
CARSON CITY    FAIR      79  45  29 NW7       30.04S
MINDEN         FAIR      75  48  38 E5        30.04S
PYRAMID LAKE     N/A     77 N/A N/A CALM        N/A
FALLON         CLOUDY    78  48  34 N3        29.97R
LOVELOCK       CLOUDY    83  47  28 NE7       29.97R
HAWTHORNE      MOCLDY    84  48  28 CALM      29.97R
$$

NVZ002-CAZ072-073-030400-
NORTHERN AND CENTRAL SIERRA

CITY           SKY/WX    TMP DP  RH WIND       PRES   REMARKS
S. LAKE TAHOE  PTCLDY    68  55  63 CALM      30.16R
TRUCKEE        MOCLDY    66  52  59 CALM      30.16S
SQUAW VLY 8000   N/A     59  43  55 NW7         N/A
SUSANVILLE     PTCLDY    72  52  49 SW6       30.04S
BLUE CANYON    PTCLDY    71  45  39 W5        30.14S
MAMMOTH LAKES  FAIR      70  37  30 NW12G18   30.20R
BRIDGEPORT     FAIR      69  37  30 W5        30.17R
$$

NVZ030-031-036-030400-
NORTHERN NEVADA

CITY           SKY/WX    TMP DP  RH WIND       PRES   REMARKS
ELKO           CLOUDY    76  46  34 S8G21     30.02F
WINNEMUCCA     CLOUDY    75  50  41 W18G26    30.01R
WENDOVER       CLOUDY    82  45  26 S23G30    29.94R
$$

NVZ035-037-030400-
CENTRAL NEVADA

CITY           SKY/WX    TMP DP  RH WIND       PRES   REMARKS
ELY            CLOUDY    69  43  38 SE9       30.16F
EUREKA           N/A     68  51  54 SE3       30.11F
$$

NVZ013-014-030400-
SOUTH CENTRAL NEVADA

CITY           SKY/WX    TMP DP  RH WIND       PRES   REMARKS
TONOPAH        PTCLDY    80  43  26 N8        30.05S
$$

NVZ017-020-022-030400-
SOUTHERN NEVADA

CITY           SKY/WX    TMP DP  RH WIND       PRES   REMARKS
LAS VEGAS      PTCLDY   100  45  15 N6        29.75R
N. LAS VEGAS   CLEAR     99  48  17 CALM      29.78R
NELLIS AFB     CLEAR    100  48  17 NW1       29.75S
HENDERSON      CLEAR     98  45  16 W3        29.83R
MERCURY        CLEAR     90  38  16 SW6       29.87S
$$


USA.gov is the U.S. government's official web portal to all federal, state and local government web resources and services.